Year,Month,Day,Hour,Minute,Value (Times are PST for temperature in C)
2008,03,17,00,00,2.90
2008,03,17,00,01,2.90
2008,03,17,00,02,2.90
2008,03,17,00,03,2.80
2008,03,17,00,04,2.80
2008,03,17,00,05,2.80
2008,03,17,00,06,2.80
2008,03,17,00,07,2.80
2008,03,17,00,08,2.80
2008,03,17,00,10,2.70
2008,03,17,00,11,2.70
2008,03,17,00,12,2.70
2008,03,17,00,13,2.70
2008,03,17,00,14,2.70
2008,03,17,00,16,2.70
2008,03,17,00,17,2.70
2008,03,17,00,18,2.70
2008,03,17,00,19,2.70
2008,03,17,00,20,2.70
2008,03,17,00,21,2.60
2008,03,17,00,22,2.70
2008,03,17,00,24,2.60
2008,03,17,00,25,2.60
2008,03,17,00,26,2.60
2008,03,17,00,27,2.60
2008,03,17,00,28,2.60
2008,03,17,00,29,2.60
2008,03,17,00,30,2.60
2008,03,17,00,31,2.60
2008,03,17,00,32,2.50
2008,03,17,00,33,2.50
2008,03,17,00,34,2.50
2008,03,17,00,36,2.40
2008,03,17,00,37,2.40
2008,03,17,00,38,2.40
2008,03,17,00,39,2.40
2008,03,17,00,40,2.40
2008,03,17,00,41,2.40
2008,03,17,00,42,2.40
2008,03,17,00,43,2.40
2008,03,17,00,45,2.40
2008,03,17,00,47,2.40
2008,03,17,00,48,2.40
2008,03,17,00,49,2.40
2008,03,17,00,50,2.40
2008,03,17,00,51,2.40
2008,03,17,00,52,2.30
2008,03,17,00,53,2.30
2008,03,17,00,54,2.30
2008,03,17,00,55,2.30
2008,03,17,00,56,2.30
2008,03,17,00,57,2.30
2008,03,17,00,58,2.30
2008,03,17,00,59,2.30
2008,03,17,01,00,2.30
2008,03,17,01,01,2.30
2008,03,17,01,02,2.30
2008,03,17,01,03,2.30
2008,03,17,01,04,2.30
2008,03,17,01,05,2.30
2008,03,17,01,07,2.30
2008,03,17,01,08,2.30
2008,03,17,01,09,2.30
2008,03,17,01,11,2.30
2008,03,17,01,12,2.30
2008,03,17,01,13,2.30
2008,03,17,01,15,2.30
2008,03,17,01,16,2.20
2008,03,17,01,17,2.20
2008,03,17,01,18,2.20
2008,03,17,01,19,2.20
2008,03,17,01,20,2.20
2008,03,17,01,21,2.20
2008,03,17,01,22,2.20
2008,03,17,01,23,2.20
2008,03,17,01,24,2.20
2008,03,17,01,25,2.20
2008,03,17,01,26,2.20
2008,03,17,01,27,2.20
2008,03,17,01,28,2.20
2008,03,17,01,29,2.20
2008,03,17,01,30,2.20
2008,03,17,01,31,2.20
2008,03,17,01,33,2.20
2008,03,17,01,34,2.20
2008,03,17,01,35,2.20
2008,03,17,01,36,2.20
2008,03,17,01,37,2.20
2008,03,17,01,38,2.20
2008,03,17,01,39,2.20
2008,03,17,01,40,2.20
2008,03,17,01,42,2.20
2008,03,17,01,43,2.20
2008,03,17,01,44,2.20
2008,03,17,01,45,2.20
2008,03,17,01,46,2.20
2008,03,17,01,47,2.20
2008,03,17,01,48,2.20
2008,03,17,01,49,2.20
2008,03,17,01,50,2.20
2008,03,17,01,51,2.20
2008,03,17,01,52,2.20
2008,03,17,01,53,2.20
2008,03,17,01,54,2.10
2008,03,17,01,55,2.10
2008,03,17,01,56,2.10
2008,03,17,01,57,2.10
2008,03,17,01,58,2.10
2008,03,17,01,59,2.10
2008,03,17,02,00,2.10
2008,03,17,02,01,2.10
2008,03,17,02,03,2.10
2008,03,17,02,04,2.10
2008,03,17,02,05,2.10
2008,03,17,02,06,2.10
2008,03,17,02,08,2.10
2008,03,17,02,09,2.10
2008,03,17,02,11,2.10
2008,03,17,02,12,2.10
2008,03,17,02,13,2.10
2008,03,17,02,14,2.10
2008,03,17,02,15,2.10
2008,03,17,02,16,2.10
2008,03,17,02,17,2.10
2008,03,17,02,18,2.10
2008,03,17,02,19,2.10
2008,03,17,02,20,2.10
2008,03,17,02,22,2.10
2008,03,17,02,23,2.10
2008,03,17,02,24,2.10
2008,03,17,02,25,2.10
2008,03,17,02,26,2.10
2008,03,17,02,27,2.10
2008,03,17,02,28,2.10
2008,03,17,02,29,2.10
2008,03,17,02,30,2.10
2008,03,17,02,32,2.10
2008,03,17,02,33,2.10
2008,03,17,02,34,2.10
2008,03,17,02,35,2.10
2008,03,17,02,36,2.10
2008,03,17,02,37,2.10
2008,03,17,02,38,2.10
2008,03,17,02,39,2.10
2008,03,17,02,40,2.10
2008,03,17,02,41,2.10
2008,03,17,02,42,2.10
2008,03,17,02,43,2.10
2008,03,17,02,45,2.10
2008,03,17,02,46,2.10
2008,03,17,02,47,2.10
2008,03,17,02,48,2.10
2008,03,17,02,49,2.10
2008,03,17,02,50,2.10
2008,03,17,02,51,2.10
2008,03,17,02,52,2.10
2008,03,17,02,53,2.10
2008,03,17,02,54,2.10
2008,03,17,02,55,2.00
2008,03,17,02,56,2.00
2008,03,17,02,57,2.00
2008,03,17,02,58,2.00
2008,03,17,02,59,2.00
2008,03,17,03,00,2.00
2008,03,17,03,01,2.00
2008,03,17,03,02,2.00
2008,03,17,03,03,2.00
2008,03,17,03,04,2.00
2008,03,17,03,05,2.00
2008,03,17,03,06,2.00
2008,03,17,03,07,2.00
2008,03,17,03,08,2.00
2008,03,17,03,09,1.90
2008,03,17,03,10,2.00
2008,03,17,03,12,1.90
2008,03,17,03,13,1.90
2008,03,17,03,14,2.00
2008,03,17,03,15,1.90
2008,03,17,03,16,1.90
2008,03,17,03,17,1.90
2008,03,17,03,18,1.90
2008,03,17,03,19,1.90
2008,03,17,03,20,1.90
2008,03,17,03,21,1.90
2008,03,17,03,22,1.90
2008,03,17,03,23,1.90
2008,03,17,03,24,1.90
2008,03,17,03,25,1.90
2008,03,17,03,26,1.90
2008,03,17,03,27,1.90
2008,03,17,03,28,1.90
2008,03,17,03,29,1.90
2008,03,17,03,30,1.90
2008,03,17,03,31,1.90
2008,03,17,03,32,1.90
2008,03,17,03,33,1.90
2008,03,17,03,34,1.90
2008,03,17,03,35,1.90
2008,03,17,03,36,1.90
2008,03,17,03,37,1.90
2008,03,17,03,38,1.90
2008,03,17,03,39,1.90
2008,03,17,03,40,1.90
2008,03,17,03,41,1.90
2008,03,17,03,42,1.90
2008,03,17,03,43,1.90
2008,03,17,03,44,1.90
2008,03,17,03,45,1.90
2008,03,17,03,46,1.90
2008,03,17,03,47,1.90
2008,03,17,03,48,1.90
2008,03,17,03,49,1.90
2008,03,17,03,50,1.90
2008,03,17,03,52,1.90
2008,03,17,03,53,1.90
2008,03,17,03,54,2.00
2008,03,17,03,55,1.90
2008,03,17,03,56,1.90
2008,03,17,03,57,1.90
2008,03,17,03,58,2.00
2008,03,17,03,59,2.00
2008,03,17,04,00,2.00
2008,03,17,04,02,2.00
2008,03,17,04,03,2.00
2008,03,17,04,04,2.00
2008,03,17,04,05,2.00
2008,03,17,04,06,2.00
2008,03,17,04,07,2.00
2008,03,17,04,08,2.00
2008,03,17,04,09,2.00
2008,03,17,04,10,2.00
2008,03,17,04,11,2.00
2008,03,17,04,12,2.00
2008,03,17,04,13,2.00
2008,03,17,04,14,2.10
2008,03,17,04,15,2.10
2008,03,17,04,16,2.10
2008,03,17,04,17,2.10
2008,03,17,04,18,2.10
2008,03,17,04,19,2.10
2008,03,17,04,20,2.10
2008,03,17,04,21,2.10
2008,03,17,04,22,2.10
2008,03,17,04,23,2.10
2008,03,17,04,24,2.10
2008,03,17,04,25,2.10
2008,03,17,04,26,2.10
2008,03,17,04,27,2.10
2008,03,17,04,28,2.10
2008,03,17,04,29,2.10
2008,03,17,04,30,2.10
2008,03,17,04,31,2.10
2008,03,17,04,32,2.10
2008,03,17,04,33,2.10
2008,03,17,04,34,2.10
2008,03,17,04,35,2.10
2008,03,17,04,36,2.10
2008,03,17,04,37,2.10
2008,03,17,04,38,2.10
2008,03,17,04,39,2.10
2008,03,17,04,40,2.10
2008,03,17,04,41,2.10
2008,03,17,04,42,2.10
2008,03,17,04,43,2.10
2008,03,17,04,44,2.10
2008,03,17,04,45,2.10
2008,03,17,04,46,2.10
2008,03,17,04,47,2.10
2008,03,17,04,48,2.10
2008,03,17,04,49,2.10
2008,03,17,04,50,2.10
2008,03,17,04,51,2.10
2008,03,17,04,52,2.10
2008,03,17,04,53,2.10
2008,03,17,04,54,2.10
2008,03,17,04,55,2.10
2008,03,17,04,56,2.10
2008,03,17,04,57,2.10
2008,03,17,04,58,2.10
2008,03,17,04,59,2.10
2008,03,17,05,00,2.10
2008,03,17,05,01,2.10
2008,03,17,05,02,2.10
2008,03,17,05,03,2.10
2008,03,17,05,04,2.10
2008,03,17,05,05,2.10
2008,03,17,05,06,2.10
2008,03,17,05,07,2.10
2008,03,17,05,08,2.10
2008,03,17,05,09,2.10
2008,03,17,05,10,2.10
2008,03,17,05,11,2.10
2008,03,17,05,12,2.10
2008,03,17,05,13,2.10
2008,03,17,05,14,2.10
2008,03,17,05,15,2.10
2008,03,17,05,16,2.10
2008,03,17,05,17,2.10
2008,03,17,05,18,2.10
2008,03,17,05,19,2.10
2008,03,17,05,20,2.10
2008,03,17,05,21,2.10
2008,03,17,05,22,2.10
2008,03,17,05,23,2.10
2008,03,17,05,24,2.10
2008,03,17,05,26,2.10
2008,03,17,05,27,2.10
2008,03,17,05,28,2.10
2008,03,17,05,29,2.10
2008,03,17,05,30,2.10
2008,03,17,05,31,2.10
2008,03,17,05,32,2.10
2008,03,17,05,33,2.10
2008,03,17,05,34,2.10
2008,03,17,05,35,2.10
2008,03,17,05,36,2.10
2008,03,17,05,37,2.10
2008,03,17,05,38,2.10
2008,03,17,05,39,2.20
2008,03,17,05,40,2.10
2008,03,17,05,42,2.10
2008,03,17,05,43,2.10
2008,03,17,05,44,2.10
2008,03,17,05,45,2.20
2008,03,17,05,46,2.10
2008,03,17,05,47,2.10
2008,03,17,05,48,2.10
2008,03,17,05,49,2.10
2008,03,17,05,50,2.10
2008,03,17,05,51,2.10
2008,03,17,05,52,2.10
2008,03,17,05,53,2.10
2008,03,17,05,54,2.10
2008,03,17,05,55,2.10
2008,03,17,05,56,2.10
2008,03,17,05,57,2.10
2008,03,17,05,58,2.10
2008,03,17,05,59,2.10
2008,03,17,06,00,2.10
2008,03,17,06,01,2.10
2008,03,17,06,02,2.10
2008,03,17,06,03,2.10
2008,03,17,06,04,2.10
2008,03,17,06,05,2.10
2008,03,17,06,06,2.10
2008,03,17,06,07,2.10
2008,03,17,06,08,2.10
2008,03,17,06,09,2.10
2008,03,17,06,10,2.20
2008,03,17,06,11,2.20
2008,03,17,06,13,2.20
2008,03,17,06,15,2.20
2008,03,17,06,16,2.20
2008,03,17,06,17,2.20
2008,03,17,06,18,2.20
2008,03,17,06,19,2.20
2008,03,17,06,20,2.20
2008,03,17,06,21,2.20
2008,03,17,06,22,2.20
2008,03,17,06,23,2.20
2008,03,17,06,24,2.20
2008,03,17,06,25,2.20
2008,03,17,06,26,2.20
2008,03,17,06,27,2.20
2008,03,17,06,28,2.20
2008,03,17,06,29,2.20
2008,03,17,06,30,2.20
2008,03,17,06,31,2.20
2008,03,17,06,33,2.20
2008,03,17,06,35,2.20
2008,03,17,06,36,2.30
2008,03,17,06,37,2.30
2008,03,17,06,38,2.30
2008,03,17,06,39,2.30
2008,03,17,06,40,2.30
2008,03,17,06,41,2.30
2008,03,17,06,42,2.30
2008,03,17,06,43,2.30
2008,03,17,06,45,2.30
2008,03,17,06,46,2.30
2008,03,17,06,47,2.30
2008,03,17,06,48,2.30
2008,03,17,06,49,2.30
2008,03,17,06,50,2.30
2008,03,17,06,51,2.30
2008,03,17,06,52,2.30
2008,03,17,06,53,2.30
2008,03,17,06,54,2.30
2008,03,17,06,55,2.30
2008,03,17,06,56,2.30
2008,03,17,06,57,2.30
2008,03,17,06,58,2.30
2008,03,17,06,59,2.30
2008,03,17,07,00,2.30
2008,03,17,07,01,2.30
2008,03,17,07,02,2.30
2008,03,17,07,03,2.20
2008,03,17,07,04,2.30
2008,03,17,07,05,2.20
2008,03,17,07,06,2.20
2008,03,17,07,07,2.20
2008,03,17,07,08,2.30
2008,03,17,07,09,2.20
2008,03,17,07,10,2.20
2008,03,17,07,11,2.20
2008,03,17,07,12,2.20
2008,03,17,07,13,2.20
2008,03,17,07,14,2.20
2008,03,17,07,15,2.20
2008,03,17,07,16,2.20
2008,03,17,07,17,2.20
2008,03,17,07,18,2.20
2008,03,17,07,19,2.20
2008,03,17,07,20,2.20
2008,03,17,07,21,2.20
2008,03,17,07,22,2.20
2008,03,17,07,23,2.20
2008,03,17,07,24,2.20
2008,03,17,07,25,2.20
2008,03,17,07,26,2.20
2008,03,17,07,27,2.20
2008,03,17,07,28,2.20
2008,03,17,07,30,2.20
2008,03,17,07,32,2.20
2008,03,17,07,33,2.20
2008,03,17,07,34,2.20
2008,03,17,07,35,2.20
2008,03,17,07,37,2.30
2008,03,17,07,38,2.30
2008,03,17,07,39,2.30
2008,03,17,07,40,2.30
2008,03,17,07,41,2.30
2008,03,17,07,42,2.30
2008,03,17,07,43,2.30
2008,03,17,07,44,2.30
2008,03,17,07,45,2.30
2008,03,17,07,46,2.30
2008,03,17,07,47,2.30
2008,03,17,07,48,2.30
2008,03,17,07,49,2.30
2008,03,17,07,50,2.30
2008,03,17,07,51,2.30
2008,03,17,07,52,2.30
2008,03,17,07,53,2.30
2008,03,17,07,54,2.30
2008,03,17,07,55,2.30
2008,03,17,07,56,2.30
2008,03,17,07,57,2.30
2008,03,17,07,58,2.30
2008,03,17,07,59,2.30
2008,03,17,08,00,2.30
2008,03,17,08,01,2.30
2008,03,17,08,02,2.30
2008,03,17,08,03,2.30
2008,03,17,08,04,2.40
2008,03,17,08,05,2.30
2008,03,17,08,06,2.40
2008,03,17,08,07,2.30
2008,03,17,08,08,2.30
2008,03,17,08,09,2.30
2008,03,17,08,10,2.30
2008,03,17,08,11,2.30
2008,03,17,08,12,2.30
2008,03,17,08,13,2.30
2008,03,17,08,14,2.30
2008,03,17,08,15,2.30
2008,03,17,08,16,2.30
2008,03,17,08,17,2.30
2008,03,17,08,18,2.30
2008,03,17,08,19,2.30
2008,03,17,08,20,2.30
2008,03,17,08,21,2.30
2008,03,17,08,22,2.30
2008,03,17,08,23,2.30
2008,03,17,08,24,2.30
2008,03,17,08,25,2.30
2008,03,17,08,26,2.30
2008,03,17,08,27,2.30
2008,03,17,08,28,2.30
2008,03,17,08,29,2.40
2008,03,17,08,30,2.30
2008,03,17,08,31,2.40
2008,03,17,08,32,2.30
2008,03,17,08,33,2.40
2008,03,17,08,34,2.40
2008,03,17,08,35,2.40
2008,03,17,08,36,2.40
2008,03,17,08,37,2.40
2008,03,17,08,38,2.40
2008,03,17,08,39,2.40
2008,03,17,08,40,2.40
2008,03,17,08,41,2.40
2008,03,17,08,42,2.40
2008,03,17,08,43,2.40
2008,03,17,08,45,2.40
2008,03,17,08,46,2.40
2008,03,17,08,47,2.40
2008,03,17,08,48,2.40
2008,03,17,08,49,2.40
2008,03,17,08,50,2.40
2008,03,17,08,51,2.40
2008,03,17,08,52,2.40
2008,03,17,08,53,2.40
2008,03,17,08,54,2.40
2008,03,17,08,55,2.50
2008,03,17,08,56,2.50
2008,03,17,08,57,2.50
2008,03,17,08,58,2.50
2008,03,17,09,00,2.50
2008,03,17,09,01,2.50
2008,03,17,09,02,2.60
2008,03,17,09,03,2.60
2008,03,17,09,04,2.60
2008,03,17,09,05,2.60
2008,03,17,09,06,2.60
2008,03,17,09,07,2.60
2008,03,17,09,08,2.60
2008,03,17,09,09,2.60
2008,03,17,09,10,2.60
2008,03,17,09,11,2.60
2008,03,17,09,12,2.60
2008,03,17,09,13,2.60
2008,03,17,09,15,2.60
2008,03,17,09,17,2.70
2008,03,17,09,18,2.70
2008,03,17,09,19,2.70
2008,03,17,09,20,2.70
2008,03,17,09,21,2.70
2008,03,17,09,22,2.70
2008,03,17,09,23,2.70
2008,03,17,09,24,2.80
2008,03,17,09,25,2.80
2008,03,17,09,26,2.80
2008,03,17,09,27,2.80
2008,03,17,09,28,2.80
2008,03,17,09,30,2.90
2008,03,17,09,31,2.90
2008,03,17,09,32,2.90
2008,03,17,09,33,2.90
2008,03,17,09,34,3.00
2008,03,17,09,35,3.00
2008,03,17,09,36,3.00
2008,03,17,09,37,3.10
2008,03,17,09,38,3.10
2008,03,17,09,39,3.10
2008,03,17,09,40,3.10
2008,03,17,09,41,3.10
2008,03,17,09,42,3.10
2008,03,17,09,43,3.10
2008,03,17,09,44,3.10
2008,03,17,09,45,3.10
2008,03,17,09,47,3.20
2008,03,17,09,48,3.20
2008,03,17,09,49,3.20
2008,03,17,09,50,3.20
2008,03,17,09,51,3.20
2008,03,17,09,52,3.30
2008,03,17,09,53,3.30
2008,03,17,09,54,3.30
2008,03,17,09,55,3.30
2008,03,17,09,56,3.30
2008,03,17,09,57,3.30
2008,03,17,09,58,3.30
2008,03,17,10,00,3.40
2008,03,17,10,01,3.40
2008,03,17,10,02,3.40
2008,03,17,10,03,3.40
2008,03,17,10,04,3.50
2008,03,17,10,05,3.50
2008,03,17,10,06,3.50
2008,03,17,10,07,3.60
2008,03,17,10,08,3.60
2008,03,17,10,09,3.60
2008,03,17,10,10,3.70
2008,03,17,10,11,3.70
2008,03,17,10,12,3.70
2008,03,17,10,13,3.70
2008,03,17,10,15,3.80
2008,03,17,10,16,3.80
2008,03,17,10,17,3.80
2008,03,17,10,18,3.80
2008,03,17,10,19,3.80
2008,03,17,10,20,3.80
2008,03,17,10,21,3.80
2008,03,17,10,22,3.80
2008,03,17,10,23,3.80
2008,03,17,10,24,3.80
2008,03,17,10,25,3.90
2008,03,17,10,26,3.90
2008,03,17,10,27,3.90
2008,03,17,10,28,3.90
2008,03,17,10,29,3.90
2008,03,17,10,30,3.90
2008,03,17,10,31,3.90
2008,03,17,10,32,3.90
2008,03,17,10,33,3.90
2008,03,17,10,34,3.90
2008,03,17,10,35,3.90
2008,03,17,10,36,3.90
2008,03,17,10,37,3.90
2008,03,17,10,38,3.90
2008,03,17,10,39,3.90
2008,03,17,10,40,3.90
2008,03,17,10,41,3.90
2008,03,17,10,42,3.90
2008,03,17,10,43,3.90
2008,03,17,10,45,3.90
2008,03,17,10,46,3.90
2008,03,17,10,47,3.90
2008,03,17,10,48,3.90
2008,03,17,10,49,3.90
2008,03,17,10,50,3.90
2008,03,17,10,51,4.00
2008,03,17,10,52,4.00
2008,03,17,10,53,4.00
2008,03,17,10,54,4.00
2008,03,17,10,55,4.10
2008,03,17,10,56,4.10
2008,03,17,10,57,4.10
2008,03,17,10,58,4.10
2008,03,17,10,59,4.10
2008,03,17,11,00,4.10
2008,03,17,11,01,4.10
2008,03,17,11,02,4.10
2008,03,17,11,03,4.20
2008,03,17,11,04,4.20
2008,03,17,11,05,4.20
2008,03,17,11,06,4.30
2008,03,17,11,07,4.30
2008,03,17,11,08,4.30
2008,03,17,11,09,4.40
2008,03,17,11,10,4.40
2008,03,17,11,11,4.40
2008,03,17,11,12,4.40
2008,03,17,11,13,4.40
2008,03,17,11,14,4.50
2008,03,17,11,15,4.50
2008,03,17,11,16,4.60
2008,03,17,11,17,4.60
2008,03,17,11,18,4.60
2008,03,17,11,19,4.60
2008,03,17,11,20,4.60
2008,03,17,11,21,4.70
2008,03,17,11,22,4.70
2008,03,17,11,23,4.70
2008,03,17,11,25,4.80
2008,03,17,11,27,4.80
2008,03,17,11,28,4.90
2008,03,17,11,30,4.90
2008,03,17,11,31,4.90
2008,03,17,11,32,4.90
2008,03,17,11,33,4.90
2008,03,17,11,34,5.00
2008,03,17,11,35,5.00
2008,03,17,11,36,5.00
2008,03,17,11,37,5.00
2008,03,17,11,38,5.00
2008,03,17,11,39,5.00
2008,03,17,11,40,5.10
2008,03,17,11,41,5.10
2008,03,17,11,42,5.10
2008,03,17,11,43,5.10
2008,03,17,11,45,5.10
2008,03,17,11,46,5.20
2008,03,17,11,47,5.20
2008,03,17,11,48,5.20
2008,03,17,11,49,5.20
2008,03,17,11,50,5.20
2008,03,17,11,51,5.20
2008,03,17,11,52,5.30
2008,03,17,11,53,5.30
2008,03,17,11,54,5.30
2008,03,17,11,55,5.40
2008,03,17,11,56,5.40
2008,03,17,11,57,5.40
2008,03,17,11,58,5.50
2008,03,17,11,59,5.60
2008,03,17,12,00,5.60
2008,03,17,12,01,5.60
2008,03,17,12,02,5.70
2008,03,17,12,03,5.70
2008,03,17,12,04,5.70
2008,03,17,12,05,5.70
2008,03,17,12,06,5.70
2008,03,17,12,07,5.70
2008,03,17,12,08,5.70
2008,03,17,12,09,5.80
2008,03,17,12,10,5.80
2008,03,17,12,11,5.90
2008,03,17,12,12,6.00
2008,03,17,12,13,6.00
2008,03,17,12,15,6.20
2008,03,17,12,17,6.20
2008,03,17,12,18,6.20
2008,03,17,12,19,6.20
2008,03,17,12,20,6.20
2008,03,17,12,21,6.20
2008,03,17,12,22,6.20
2008,03,17,12,23,6.20
2008,03,17,12,24,6.20
2008,03,17,12,25,6.20
2008,03,17,12,26,6.20
2008,03,17,12,27,6.20
2008,03,17,12,28,6.20
2008,03,17,12,29,6.20
2008,03,17,12,30,6.20
2008,03,17,12,31,6.20
2008,03,17,12,32,6.10
2008,03,17,12,33,6.10
2008,03,17,12,34,6.10
2008,03,17,12,35,6.10
2008,03,17,12,36,6.10
2008,03,17,12,37,6.10
2008,03,17,12,38,6.10
2008,03,17,12,39,6.10
2008,03,17,12,40,6.10
2008,03,17,12,41,6.10
2008,03,17,12,42,6.20
2008,03,17,12,43,6.20
2008,03,17,12,45,6.20
2008,03,17,12,46,6.30
2008,03,17,12,47,6.30
2008,03,17,12,48,6.30
2008,03,17,12,49,6.30
2008,03,17,12,50,6.30
2008,03,17,12,51,6.30
2008,03,17,12,52,6.30
2008,03,17,12,53,6.40
2008,03,17,12,54,6.40
2008,03,17,12,55,6.40
2008,03,17,12,56,6.40
2008,03,17,12,57,6.40
2008,03,17,12,58,6.40
2008,03,17,12,59,6.50
2008,03,17,13,00,6.50
2008,03,17,13,01,6.40
2008,03,17,13,02,6.40
2008,03,17,13,03,6.40
2008,03,17,13,04,6.40
2008,03,17,13,05,6.40
2008,03,17,13,06,6.40
2008,03,17,13,07,6.40
2008,03,17,13,08,6.50
2008,03,17,13,09,6.50
2008,03,17,13,10,6.60
2008,03,17,13,11,6.60
2008,03,17,13,12,6.70
2008,03,17,13,13,6.70
2008,03,17,13,14,6.70
2008,03,17,13,15,6.70
2008,03,17,13,16,6.80
2008,03,17,13,17,6.80
2008,03,17,13,18,6.80
2008,03,17,13,19,6.80
2008,03,17,13,20,6.80
2008,03,17,13,21,6.80
2008,03,17,13,22,6.80
2008,03,17,13,23,6.80
2008,03,17,13,24,6.90
2008,03,17,13,25,6.90
2008,03,17,13,26,6.90
2008,03,17,13,27,7.00
2008,03,17,13,28,7.10
2008,03,17,13,29,7.20
2008,03,17,13,30,7.20
2008,03,17,13,31,7.30
2008,03,17,13,32,7.40
2008,03,17,13,33,7.50
2008,03,17,13,34,7.60
2008,03,17,13,35,7.70
2008,03,17,13,36,7.70
2008,03,17,13,37,7.80
2008,03,17,13,38,7.80
2008,03,17,13,39,7.90
2008,03,17,13,40,7.90
2008,03,17,13,41,7.90
2008,03,17,13,42,8.00
2008,03,17,13,43,8.10
2008,03,17,13,45,8.10
2008,03,17,13,46,8.20
2008,03,17,13,47,8.20
2008,03,17,13,48,8.20
2008,03,17,13,49,8.20
2008,03,17,13,50,8.20
2008,03,17,13,51,8.20
2008,03,17,13,52,8.20
2008,03,17,13,53,8.20
2008,03,17,13,54,8.10
2008,03,17,13,55,8.10
2008,03,17,13,56,8.10
2008,03,17,13,57,8.10
2008,03,17,13,58,8.10
2008,03,17,13,59,8.00
2008,03,17,14,00,8.10
2008,03,17,14,01,8.10
2008,03,17,14,02,8.10
2008,03,17,14,03,8.10
2008,03,17,14,04,8.10
2008,03,17,14,05,8.20
2008,03,17,14,06,8.20
2008,03,17,14,07,8.10
2008,03,17,14,08,8.10
2008,03,17,14,09,8.10
2008,03,17,14,10,8.10
2008,03,17,14,11,8.10
2008,03,17,14,12,8.00
2008,03,17,14,13,7.90
2008,03,17,14,15,7.90
2008,03,17,14,16,7.90
2008,03,17,14,18,8.00
2008,03,17,14,19,8.10
2008,03,17,14,20,8.10
2008,03,17,14,21,8.20
2008,03,17,14,22,8.20
2008,03,17,14,23,8.30
2008,03,17,14,24,8.40
2008,03,17,14,26,8.50
2008,03,17,14,27,8.60
2008,03,17,14,28,8.70
2008,03,17,14,29,8.70
2008,03,17,14,30,8.80
2008,03,17,14,32,8.90
2008,03,17,14,33,9.00
2008,03,17,14,34,9.10
2008,03,17,14,35,9.10
2008,03,17,14,36,9.20
2008,03,17,14,37,9.20
2008,03,17,14,38,9.30
2008,03,17,14,39,9.40
2008,03,17,14,40,9.50
2008,03,17,14,41,9.60
2008,03,17,14,42,9.70
2008,03,17,14,43,9.70
2008,03,17,14,45,9.80
2008,03,17,14,46,9.90
2008,03,17,14,47,10.00
2008,03,17,14,48,10.10
2008,03,17,14,49,10.10
2008,03,17,14,52,10.40
2008,03,17,14,53,10.40
2008,03,17,14,54,10.50
2008,03,17,14,55,10.60
2008,03,17,14,56,10.60
2008,03,17,14,57,10.60
2008,03,17,14,58,10.60
2008,03,17,14,59,10.60
2008,03,17,15,00,10.70
2008,03,17,15,01,10.70
2008,03,17,15,03,10.60
2008,03,17,15,04,10.60
2008,03,17,15,06,10.60
2008,03,17,15,07,10.60
2008,03,17,15,09,10.70
2008,03,17,15,10,10.70
2008,03,17,15,11,10.70
2008,03,17,15,12,10.80
2008,03,17,15,13,10.80
2008,03,17,15,14,10.90
2008,03,17,15,15,11.00
2008,03,17,15,16,11.10
2008,03,17,15,17,11.10
2008,03,17,15,19,11.20
2008,03,17,15,20,11.20
2008,03,17,15,21,11.20
2008,03,17,15,22,11.20
2008,03,17,15,23,11.20
2008,03,17,15,24,11.20
2008,03,17,15,25,11.30
2008,03,17,15,26,11.20
2008,03,17,15,27,11.20
2008,03,17,15,28,11.20
2008,03,17,15,29,11.20
2008,03,17,15,30,11.20
2008,03,17,15,31,11.10
2008,03,17,15,32,11.10
2008,03,17,15,33,11.10
2008,03,17,15,34,11.10
2008,03,17,15,35,11.00
2008,03,17,15,36,11.00
2008,03,17,15,37,10.90
2008,03,17,15,38,10.90
2008,03,17,15,39,10.90
2008,03,17,15,40,10.90
2008,03,17,15,41,10.90
2008,03,17,15,42,10.90
2008,03,17,15,43,10.90
2008,03,17,15,44,10.90
2008,03,17,15,45,10.90
2008,03,17,15,46,10.90
2008,03,17,15,47,10.90
2008,03,17,15,48,10.90
2008,03,17,15,49,10.90
2008,03,17,15,50,10.90
2008,03,17,15,51,11.00
2008,03,17,15,52,11.00
2008,03,17,15,53,11.10
2008,03,17,15,54,11.10
2008,03,17,15,55,11.10
2008,03,17,15,56,11.20
2008,03,17,15,57,11.20
2008,03,17,15,58,11.20
2008,03,17,15,59,11.20
2008,03,17,16,00,11.20
2008,03,17,16,01,11.20
2008,03,17,16,02,11.20
2008,03,17,16,03,11.10
2008,03,17,16,04,11.00
2008,03,17,16,05,10.90
2008,03,17,16,06,10.90
2008,03,17,16,07,10.80
2008,03,17,16,08,10.70
2008,03,17,16,09,10.70
2008,03,17,16,10,10.60
2008,03,17,16,11,10.50
2008,03,17,16,12,10.40
2008,03,17,16,13,10.30
2008,03,17,16,15,10.20
2008,03,17,16,16,10.10
2008,03,17,16,17,10.00
2008,03,17,16,18,9.90
2008,03,17,16,19,9.80
2008,03,17,16,20,9.80
2008,03,17,16,21,9.70
2008,03,17,16,22,9.70
2008,03,17,16,23,9.60
2008,03,17,16,24,9.60
2008,03,17,16,25,9.60
2008,03,17,16,26,9.60
2008,03,17,16,27,9.70
2008,03,17,16,28,9.70
2008,03,17,16,29,9.70
2008,03,17,16,30,9.80
2008,03,17,16,31,9.80
2008,03,17,16,32,9.80
2008,03,17,16,33,9.80
2008,03,17,16,34,9.80
2008,03,17,16,35,9.90
2008,03,17,16,36,9.90
2008,03,17,16,37,10.10
2008,03,17,16,38,10.10
2008,03,17,16,39,10.20
2008,03,17,16,40,10.20
2008,03,17,16,41,10.20
2008,03,17,16,42,10.20
2008,03,17,16,43,10.20
2008,03,17,16,45,10.30
2008,03,17,16,46,10.30
2008,03,17,16,47,10.30
2008,03,17,16,48,10.30
2008,03,17,16,49,10.40
2008,03,17,16,50,10.40
2008,03,17,16,51,10.40
2008,03,17,16,52,10.50
2008,03,17,16,53,10.60
2008,03,17,16,54,10.60
2008,03,17,16,55,10.60
2008,03,17,16,56,10.60
2008,03,17,16,57,10.60
2008,03,17,16,58,10.70
2008,03,17,16,59,10.70
2008,03,17,17,00,10.70
2008,03,17,17,01,10.70
2008,03,17,17,02,10.70
2008,03,17,17,03,10.70
2008,03,17,17,04,10.70
2008,03,17,17,05,10.60
2008,03,17,17,06,10.60
2008,03,17,17,07,10.60
2008,03,17,17,08,10.60
2008,03,17,17,09,10.60
2008,03,17,17,10,10.60
2008,03,17,17,11,10.60
2008,03,17,17,12,10.60
2008,03,17,17,13,10.60
2008,03,17,17,15,10.60
2008,03,17,17,16,10.60
2008,03,17,17,17,10.60
2008,03,17,17,19,10.60
2008,03,17,17,20,10.60
2008,03,17,17,22,10.60
2008,03,17,17,24,10.60
2008,03,17,17,25,10.60
2008,03,17,17,27,10.60
2008,03,17,17,28,10.60
2008,03,17,17,29,10.70
2008,03,17,17,30,10.70
2008,03,17,17,36,10.70
2008,03,17,17,37,10.70
2008,03,17,17,38,10.70
2008,03,17,17,39,10.60
2008,03,17,17,40,10.60
2008,03,17,17,41,10.50
2008,03,17,17,42,10.50
2008,03,17,17,43,10.40
2008,03,17,17,44,10.40
2008,03,17,17,45,10.30
2008,03,17,17,46,10.30
2008,03,17,17,47,10.20
2008,03,17,17,48,10.10
2008,03,17,17,49,10.10
2008,03,17,17,50,9.90
2008,03,17,17,51,9.80
2008,03,17,17,52,9.70
2008,03,17,17,53,9.70
2008,03,17,17,54,9.60
2008,03,17,17,55,9.50
2008,03,17,17,56,9.40
2008,03,17,17,57,9.30
2008,03,17,17,58,9.20
2008,03,17,17,59,9.10
2008,03,17,18,00,9.00
2008,03,17,18,01,8.90
2008,03,17,18,02,8.80
2008,03,17,18,03,8.80
2008,03,17,18,04,8.80
2008,03,17,18,05,8.70
2008,03,17,18,06,8.70
2008,03,17,18,07,8.70
2008,03,17,18,08,8.70
2008,03,17,18,09,8.60
2008,03,17,18,10,8.60
2008,03,17,18,11,8.60
2008,03,17,18,12,8.50
2008,03,17,18,13,8.40
2008,03,17,18,14,8.40
2008,03,17,18,15,8.40
2008,03,17,18,16,8.30
2008,03,17,18,17,8.30
2008,03,17,18,18,8.30
2008,03,17,18,19,8.30
2008,03,17,18,20,8.20
2008,03,17,18,21,8.20
2008,03,17,18,22,8.20
2008,03,17,18,23,8.20
2008,03,17,18,24,8.20
2008,03,17,18,25,8.10
2008,03,17,18,26,8.10
2008,03,17,18,27,8.10
2008,03,17,18,28,8.10
2008,03,17,18,29,8.10
2008,03,17,18,30,8.10
2008,03,17,18,31,8.10
2008,03,17,18,32,8.10
2008,03,17,18,33,8.10
2008,03,17,18,34,8.10
2008,03,17,18,35,8.10
2008,03,17,18,36,8.10
2008,03,17,18,37,8.20
2008,03,17,18,38,8.20
2008,03,17,18,39,8.20
2008,03,17,18,40,8.20
2008,03,17,18,41,8.20
2008,03,17,18,42,8.20
2008,03,17,18,43,8.20
2008,03,17,18,44,8.20
2008,03,17,18,45,8.20
2008,03,17,18,46,8.20
2008,03,17,18,47,8.20
2008,03,17,18,48,8.20
2008,03,17,18,49,8.20
2008,03,17,18,50,8.10
2008,03,17,18,51,8.10
2008,03,17,18,52,8.10
2008,03,17,18,53,8.10
2008,03,17,18,54,8.10
2008,03,17,18,55,8.00
2008,03,17,18,56,8.00
2008,03,17,18,57,8.00
2008,03,17,18,58,7.90
2008,03,17,18,59,7.90
2008,03,17,19,00,7.90
2008,03,17,19,01,7.90
2008,03,17,19,02,7.90
2008,03,17,19,03,7.90
2008,03,17,19,04,7.80
2008,03,17,19,05,7.80
2008,03,17,19,06,7.80
2008,03,17,19,07,7.80
2008,03,17,19,08,7.70
2008,03,17,19,09,7.70
2008,03,17,19,10,7.70